Flag for Israel Weather past 2 weeks in Ra'anana, Israel

Now
82 °F

Sunny.


Feels Like: 86 °F
Forecast: 67 / 83 °F
Wind: 9 mph from Northwest

Location: Dov Airport

Current Time: May 25, 2015 at 3:34:36 PM

Latest Report: May 25, 2015 at 2:50 PM


Visibility: 10 mi

Pressure: 29.86 "Hg

Humidity: 66%

Dew point: 70 °F

Location of Ra'ananaLocation

Historic Weather in Ra'anana — Graph

°F

Ra'anana temperature yesterday

Maximum temperature yesterday: 81 °F (at 11:50 AM)
Minimum temperature yesterday: 66 °F (at 6:00 AM)
Average temperature yesterday: 77 °F

Past Weeks' High & Low Weather Summary

 TemperatureHumidityPressure
High104 °F (May 18, 12:50 PM)88% (May 11, 4:50 AM)30.15 "Hg (May 11, 4:50 AM)
Low63 °F (May 16, 5:50 AM)6% (May 18, 12:50 PM)29.68 "Hg (May 19, 4:50 AM)
Average75 °F65%29.89 "Hg
* Reported May 10 1:50 PM — May 25 1:50 PM, Ra'anana, Weather by CustomWeather, © 2015

Note: Actual official high and low records may vary slightly from our data, if they occured in-between our weather recording intervals... More about our weather records

Advertising

Ra'anana weather history for previous 24 hours

 ConditionsComfort  
Time TempWeatherWind HumidityBarometerVisibility
1:50 PM
Mon, May 25
86 °FSunny.8 mph38%29.86 "Hg10 mi
12:50 PM88 °FSunny.7 mph35%29.86 "Hg10 mi
11:50 AM86 °FSunny.7 mph35%29.89 "Hg10 mi
10:50 AM84 °FSunny.6 mph31%29.89 "Hg10 mi
9:50 AM82 °FSunny.7 mph45%29.89 "Hg10 mi
8:50 AM82 °FSunny.6 mph40%29.89 "Hg10 mi
7:50 AM77 °FSunny.6 mph69%29.89 "Hg10 mi
6:50 AM75 °FPassing clouds.5 mph74%29.86 "HgN/A
5:50 AM72 °FClear.3 mph44%29.83 "Hg10 mi
4:50 AM73 °FClear.2 mph41%29.83 "Hg10 mi
11:50 PM
Sun, May 24
77 °FClear.6 mph44%29.86 "Hg10 mi
10:50 PM77 °FClear.1 mph47%29.89 "Hg10 mi
9:50 PM77 °FClear.1 mph54%29.89 "Hg10 mi
8:50 PM79 °FClear.2 mph42%29.89 "Hg10 mi
7:50 PM79 °FSunny.3 mph39%29.89 "Hg10 mi
6:50 PM81 °FSunny.7 mph39%29.89 "Hg10 mi
5:50 PM81 °FSunny.9 mph54%29.89 "Hg10 mi
4:50 PM79 °FSunny.8 mph58%29.89 "Hg10 mi
3:50 PM81 °FSunny.9 mph51%29.89 "Hg10 mi
Weather by CustomWeather, © 2015

See weather overviewHow to use our weather pages